Location: Unspecified
(43.4354°N, 0.0000°E)
Time: 11:27:01
(UTC+00:00)

Transit 2A - Pass Details

Date: 25 June 2019
Orbit: 596 x 962 km, 66.7° (Epoch: 16 August)

Event Time Altitude Azimuth Distance (km) Brightness Sun altitude
Rises 07:26:59 0° 333° (NNW) 3,465 9.2 30.9°
Reaches altitude 10° 07:29:48 10° 341° (NNW) 2,466 8.6 31.4°
Maximum altitude 07:35:00 36° 48° (NE) 1,220 8.2 32.3°
Drops below altitude 10° 07:39:42 10° 115° (ESE) 2,223 9.5 33.2°
Sets 07:42:06 0° 124° (SE) 3,082 9.8 33.6°
